Location: Wheeling
(40.0640°N, 80.7210°W)
Time: 19:13:13
(UTC-05:00)

ITAMSAT 1 - Pass Details

Date: 24 October 2021
Orbit: 784 x 796 km, 98.9° (Epoch: 01 December)

Event Time Altitude Azimuth Distance (km) Brightness Sun altitude
Rises 20:48:06 0° 198° (SSW) 3,258 11.0 -27.0°
Reaches altitude 10° 20:50:50 10° 212° (SSW) 2,335 10.4 -27.6°
Maximum altitude 20:54:55 24° 265° (W) 1,597 9.9 -28.3°
Drops below altitude 10° 20:59:02 10° 318° (NW) 2,352 10.7 -29.1°
Sets 21:01:50 0° 333° (NNW) 3,288 11.4 -29.6°
